Blountville, TN

7:55 PM EST on February 19, 2017 (GMT -0500)
Tri-Cities Regional Tennessee / Virginia

Weather History for KTRI - January, 2008

Change the Weather History Date:

Thursday, January 3, 2008

  Actual Average Record
Temperature  
Mean Temperature 18 °F 35 °F  
Max Temperature 28 °F 45 °F 72 °F (2000)
Min Temperature 8 °F 25 °F 5 °F (1979)
Degree Days  
Heating Degree Days 47 30  
Month to date heating degree days 124 90  
Since 1 July heating degree days 1541 1819  
Cooling Degree Days 0 0  
Month to date cooling degree days 0 0  
Year to date cooling degree days 0 0  
Moisture  
Dew Point 9 °F    
Average Humidity 65    
Maximum Humidity 84    
Minimum Humidity 46    
Precipitation  
Precipitation T in 0.10 in 1.07 in (1982)
Month to date precipitation 0.03 0.30  
Year to date precipitation 0.03 0.30  
Snow  
Snow T in 0.10 in - ()
Month to date snowfall 1.2 0.4  
Since 1 July snowfall 1.3 3.1  
Snow Depth 0.00 in    
Sea Level Pressure  
Sea Level Pressure 30.77 in    
Wind  
Wind Speed 2 mph (NW)    
Max Wind Speed 10 mph    
Max Gust Speed 12 mph    
Visibility 10 miles    
Events      
T = Trace of Precipitation, MM = Missing Value Source: NWS Daily Summary

Daily Weather History Graph

Daily Weather History Graph

Search for Another Location

Airport or City:

Trip Planner

Search our weather history database for the weather conditions in past years. The results will help you decide how hot, cold, wet, or windy it might be!

Date:

Astronomy

Jan. 03, 2008 Rise Set
Actual Time 7:41 AM EST 5:26 PM EST
Civil Twilight 7:13 AM EST 5:54 PM EST
Nautical Twilight 6:40 AM EST 6:27 PM EST
Astronomical Twilight 6:09 AM EST 6:58 PM EST
Moon 3:32 AM EST (1/3) 1:31 PM EST (1/3)
Length of Visible Light 10h 41m
Length of Day
9h 44m
Waning Crescent, 20% of the Moon is Illuminated
Jan 3
Waning Crescent
Jan 8
New
Jan 15
First Quarter
Jan 22
Full
Jan 30
Last Quarter

Hourly Weather History & Observations

Time (EST) Temp. Windchill Dew Point Humidity Pressure Visibility Wind Dir Wind Speed Gust Speed Precip Events Conditions
12:53 AM 17.1 °F 6.6 °F 8.1 °F 68% 30.71 in 10.0 mi WNW 8.1 mph - 0.00 in   Overcast
1:53 AM 16.0 °F 5.3 °F 7.0 °F 68% 30.72 in 10.0 mi NW 8.1 mph - N/A   Overcast
2:53 AM 16.0 °F 8.8 °F 7.0 °F 68% 30.73 in 10.0 mi WNW 4.6 mph - N/A   Overcast
3:53 AM 14.0 °F 8.2 °F 5.0 °F 67% 30.73 in 10.0 mi West 3.5 mph - N/A   Partly Cloudy
4:53 AM 12.0 °F 5.9 °F 5.0 °F 73% 30.74 in 10.0 mi West 3.5 mph - N/A   Clear
5:53 AM 10.0 °F - 5.0 °F 80% 30.78 in 10.0 mi Calm Calm - N/A   Partly Cloudy
6:53 AM 9.0 °F 2.4 °F 5.0 °F 84% 30.81 in 10.0 mi North 3.5 mph - N/A   Partly Cloudy
7:53 AM 10.0 °F - 6.1 °F 84% 30.84 in 8.0 mi Calm Calm - N/A   Scattered Clouds
8:53 AM 14.0 °F - 9.0 °F 80% 30.85 in 8.0 mi Calm Calm - N/A   Overcast
9:53 AM 16.0 °F - 10.0 °F 77% 30.87 in 8.0 mi Calm Calm - 0.00 in   Scattered Clouds
10:53 AM 18.0 °F - 9.0 °F 68% 30.86 in 10.0 mi Calm Calm - N/A   Scattered Clouds
11:53 AM 19.9 °F 14.9 °F 10.0 °F 65% 30.84 in 10.0 mi NNW 3.5 mph - N/A   Partly Cloudy
12:53 PM 21.9 °F - 10.0 °F 60% 30.81 in 10.0 mi Calm Calm - N/A   Clear
1:53 PM 25.0 °F 20.7 °F 12.0 °F 58% 30.76 in 10.0 mi East 3.5 mph - N/A   Clear
2:53 PM 27.0 °F - 12.0 °F 53% 30.73 in 10.0 mi Calm Calm - N/A   Clear
3:53 PM 28.0 °F - 10.0 °F 47% 30.72 in 10.0 mi Calm Calm - N/A   Clear
4:53 PM 27.0 °F - 9.0 °F 47% 30.73 in 10.0 mi Calm Calm - N/A   Clear
5:53 PM 26.1 °F - 10.0 °F 51% 30.74 in 10.0 mi Calm Calm - N/A   Clear
6:53 PM 21.0 °F - 12.0 °F 68% 30.76 in 10.0 mi Calm Calm - N/A   Clear
7:53 PM 19.0 °F - 10.9 °F 71% 30.76 in 10.0 mi Calm Calm - N/A   Clear
8:53 PM 18.0 °F - 10.9 °F 74% 30.74 in 10.0 mi Calm Calm - N/A   Clear
9:53 PM 17.1 °F - 10.9 °F 77% 30.74 in 10.0 mi Calm Calm - N/A   Clear
10:53 PM 17.1 °F - 10.9 °F 77% 30.72 in 10.0 mi Calm Calm - N/A   Clear
11:53 PM 16.0 °F - 10.9 °F 81% 30.71 in 9.0 mi Calm Calm - N/A   Clear